Regional Weather Roundup
Issued by NWS

Home | Current Version | Previous Version | Graphics & Text | Print | Product List | Glossary On
Versions: 1 2 3 4 5 6 7 8 9 10 11 12 13 14 15 16 17 18 19 20 21 22 23 24 25 26 27 28 29 30 31 32 33 34 35 36 37 38 39 40 41 42 43 44 45 46 47 48 49 50
000
ASUS44 KMEG 291300
RWRTN
TENNESSEE HOURLY STATE WEATHER ROUNDUP
NATIONAL WEATHER SERVICE MEMPHIS TN
800 AM CDT SAT AUG 29 2015

TNZ002-004-019-021-049-052-054-088>092-291400-
WEST TENNESSEE

CITY           SKY/WX    TMP DP  RH WIND       PRES   REMARKS
MEMPHIS INTL   MOSUNNY   74  68  81 S6        30.07R
NWS MEMPHIS      N/A     73 N/A N/A MISG        N/A
JACKSON        SUNNY     74  69  85 S6        30.10R
DYERSBURG      FAIR     N/A N/A N/A MISG        N/A
UNION CITY     SUNNY    N/A N/A N/A S6        30.07S
PARIS          SUNNY     70  66  88 S7        30.11S
LEXINGTON      SUNNY     70  68  94 CALM      30.10S
$$

TNZ008-025-027-028-033-062-065-066-291400-
NORTH MIDDLE TENNESSEE

CITY           SKY/WX    TMP DP  RH WIND       PRES   REMARKS
NASHVILLE      SUNNY     74  66  76 VRB3      30.14R
CLARKSVILLE    SUNNY     71  67  87 SE5       30.12R
COOKEVILLE     SUNNY     73  70  88 S5        30.18R
CROSSVILLE     MOSUNNY   72  65  78 VRB3      30.23R
$$

TNZ061-075-076-078-094-096-097-291400-
SOUTH MIDDLE TENNESSEE

CITY           SKY/WX    TMP DP  RH WIND       PRES   REMARKS
FAYETTEVILLE   SUNNY     72  66  83 CALM      30.15S
TULLAHOMA      SUNNY     73  66  78 SE6       30.18R
WINCHESTER     CLOUDY    73  68  83 SE7       30.17R
COLUMBIA       SUNNY     75  73  94 S5        30.12S
SHELBYVILLE    MOSUNNY   73  70  88 SE5       30.16S
$$

TNZ017-018-042-046-047-291400-
NORTHEAST TENNESSEE

CITY           SKY/WX    TMP DP  RH WIND       PRES   REMARKS
TRI CITIES     PTSUNNY   65  61  87 CALM      30.25S
ELIZABETHTON   MOSUNNY   64  57  77 E6        30.27S
$$

TNZ012-013-036-069-073-074-291400-
CENTRAL EAST TENNESSEE

CITY           SKY/WX    TMP DP  RH WIND       PRES   REMARKS
KNOXVILLE      PTSUNNY   71  68  90 CALM      30.20S
OAK RIDGE      MOSUNNY   71  65  81 CALM      30.22S
GATLINBURG     SUNNY     66  61  82 CALM      30.21S
$$

TNZ083-085-099-291400-
SOUTHEAST TENNESSEE

CITY           SKY/WX    TMP DP  RH WIND       PRES   REMARKS
CHATTANOOGA    PTSUNNY   73  67  81 CALM      30.19S
$$

SKY/WX REPORTED AS FAIR MEANS FEW OR NO CLOUDS BELOW
12 THOUSAND FEET.



USA.gov is the U.S. government's official web portal to all federal, state and local government web resources and services.